Spokane Fairchild, WA
on Sunday, December 30, 2012

Sunday
Previous Day Next Day
Daily Summary
 ActualAverage (KGEG)Record (KGEG)
Temperature
Mean Temperature °F 27°F  
Max Temperature 23°F 32°F 51°F (1920)
Min Temperature 18°F 22°F -25°F (1968)
Degree Days
Heating Degree Days 44 38  
Month to date heating degree days 1129  
Since 1 July heating degree days 2796  
Cooling Degree Days 0 0  
Month to date cooling degree days 0  
Year to date cooling degree days 450  
Moisture
Dew Point 22°F   
Average Humidity 100    
Maximum Humidity 100    
Minimum Humidity 99    
Precipitation
Precipitation 0.00 in 0.07 in 0.85 in (1896)
Month to date precipitation 2.24  
Year to date precipitation 16.50  
Snow
Snow 0.00 in 0.50 in 5.40 in (1990)
Month to date snowfall 14.1  
Since 1 July snowfall 21.6  
Snow Depth in   
Wind
Wind Speed 2 mph   
Max Wind Speed 10 mph   
Max Gust Speed mph   
Visibility 6 miles   
Events Fog , Rain , Snow   

Key: T is trace of precipitation, MM is missing value
Source: NWS Daily Summary
Time(PST)TemperatureDew PointHumidity Pressure Visibility Wind DirectionWind SpeedGust SpeedPrecipitationEvents Conditions
12:03 AM 19.4°F 19.4°F 100% 30.13 in 1.2 miles Calm Calm - N/A   Overcast
12:08 AM 19.4°F 19.4°F 100% 30.13 in 1.0 miles Calm Calm - N/A   Overcast
12:13 AM 19.4°F 19.4°F 100% 30.13 in 1.2 miles Calm Calm - N/A   Overcast
12:18 AM 19.4°F 19.4°F 100% 30.13 in 1.8 miles Calm Calm - N/A   Overcast
12:23 AM 19.4°F 19.4°F 100% 30.13 in 2.0 miles Calm Calm - N/A   Overcast
12:28 AM 19.4°F 19.4°F 100% 30.13 in 1.8 miles Calm Calm - N/A   Overcast
12:33 AM 19.4°F 19.4°F 100% 30.13 in 0.8 miles Calm Calm - N/A   Mist
12:38 AM 19.4°F 19.4°F 100% 30.13 in 0.5 miles Calm Calm - N/A Fog Light Freezing Fog
12:43 AM 19.4°F 19.4°F 100% 30.13 in 0.5 miles Calm Calm - N/A Fog Light Freezing Fog
12:48 AM 19.4°F 19.4°F 100% 30.13 in 0.2 miles Calm Calm - N/A Fog Light Freezing Fog
12:53 AM 19.4°F 19.4°F 100% 30.13 in 0.2 miles Calm Calm - N/A Fog Light Freezing Fog
12:58 AM 19.0°F 19.0°F 100% 30.25 in 0.2 miles Calm Calm - N/A Fog Light Freezing Fog
1:19 AM 19.4°F 19.4°F 100% 30.14 in 0.2 miles Calm Calm - N/A Fog , Snow Light Freezing Fog
1:28 AM 19.4°F 19.4°F 100% 30.14 in 0.2 miles Calm Calm - N/A Fog Light Freezing Fog
1:29 AM 19.4°F 19.4°F 100% 30.14 in 0.2 miles Calm Calm - N/A Fog Light Freezing Drizzle
1:34 AM 19.4°F 19.4°F 100% 30.15 in 0.2 miles Calm Calm - N/A Fog Light Freezing Drizzle
1:44 AM 19.4°F 19.4°F 100% 30.15 in 0.2 miles Calm Calm - N/A Fog Light Freezing Drizzle
1:49 AM 19.4°F 19.4°F 100% 30.15 in 0.5 miles Calm Calm - N/A Fog Light Freezing Drizzle
1:58 AM 19.4°F 19.4°F 100% 30.27 in 0.5 miles Calm Calm - 0.00 in Fog Light Freezing Drizzle
1:59 AM 19.4°F 19.4°F 100% 30.16 in 0.5 miles Calm Calm - N/A Fog Light Freezing Fog
2:09 AM 19.4°F 19.4°F 100% 30.16 in 0.8 miles Calm Calm - N/A   Overcast
2:14 AM 19.4°F 19.4°F 100% 30.17 in 1.0 miles Calm Calm - N/A   Overcast
2:19 AM 19.4°F 19.4°F 100% 30.17 in 1.5 miles Calm Calm - N/A   Overcast
2:24 AM 19.4°F 19.4°F 100% 30.17 in 2.0 miles Calm Calm - N/A   Overcast
2:29 AM 19.4°F 19.4°F 100% 30.17 in 5.0 miles Calm Calm - N/A   Overcast
2:45 AM 19.4°F 19.4°F 100% 30.17 in 8.0 miles Calm Calm - N/A Snow Light Snow
2:58 AM 18.9°F 18.9°F 100% 30.29 in 10.0 miles Calm Calm - 0.00 in Snow Light Snow
3:05 AM 19.4°F 19.4°F 100% 30.17 in 10.0 miles Calm Calm - N/A   Overcast
3:06 AM 19.4°F 19.4°F 100% 30.17 in 10.0 miles Calm Calm - N/A   Light Freezing Drizzle
3:35 AM 19.4°F 19.4°F 100% 30.17 in 10.0 miles Calm Calm - N/A   Overcast
3:58 AM 19.8°F 19.8°F 100% 30.29 in 10.0 miles Calm Calm - 0.00 in   Overcast
4:47 AM 19.4°F 19.4°F 100% 30.17 in 10.0 miles Calm Calm - N/A Snow Light Snow
4:58 AM 20.1°F 20.1°F 100% 30.29 in 10.0 miles Calm Calm - 0.00 in Snow Light Snow
5:08 AM 19.4°F 19.4°F 100% 30.18 in 10.0 miles Calm Calm - N/A   Overcast
5:09 AM 19.4°F 19.4°F 100% 30.18 in 10.0 miles Calm Calm - N/A   Light Freezing Drizzle
5:38 AM 19.4°F 19.4°F 100% 30.18 in 10.0 miles Calm Calm - N/A   Overcast
5:58 AM 20.1°F 20.1°F 100% 30.30 in 10.0 miles Calm Calm - 0.00 in   Overcast
6:24 AM 19.4°F 19.4°F 100% 30.18 in 10.0 miles Calm Calm - N/A Snow Light Snow
6:46 AM 19.4°F 19.4°F 100% 30.19 in 10.0 miles Calm Calm - N/A   Overcast
6:47 AM 19.4°F 19.4°F 100% 30.19 in 10.0 miles Calm Calm - N/A   Light Freezing Drizzle
6:58 AM 19.9°F 19.9°F 100% 30.31 in 10.0 miles Calm Calm - 0.00 in   Light Freezing Drizzle
7:16 AM 19.4°F 19.4°F 100% 30.19 in 10.0 miles Calm Calm - N/A   Overcast
7:46 AM 19.4°F 19.4°F 100% 30.19 in 10.0 miles Calm Calm - N/A Snow Light Snow
7:58 AM 20.1°F 20.1°F 100% 30.31 in 10.0 miles Calm Calm - 0.00 in Snow Light Snow
8:10 AM 19.4°F 19.4°F 100% 30.20 in 10.0 miles Calm Calm - N/A   Overcast
8:11 AM 19.4°F 19.4°F 100% 30.20 in 10.0 miles Calm Calm - N/A   Light Freezing Drizzle
8:40 AM 19.4°F 19.4°F 100% 30.21 in 10.0 miles Calm Calm - N/A   Overcast
8:44 AM 19.4°F 19.4°F 100% 30.21 in 10.0 miles Calm Calm - N/A Snow Light Snow
8:58 AM 20.5°F 20.5°F 100% 30.34 in 10.0 miles Calm Calm - 0.00 in Snow Light Snow
8:59 AM 21.2°F 21.2°F 100% 30.22 in 10.0 miles Calm Calm - N/A   Overcast
9:00 AM 21.2°F 21.2°F 100% 30.22 in 10.0 miles Calm Calm - N/A   Light Freezing Drizzle
9:28 AM 21.2°F 21.2°F 100% 30.23 in 10.0 miles Calm Calm - N/A   Overcast
9:33 AM 21.2°F 21.2°F 100% 30.23 in 10.0 miles Calm Calm - N/A   Overcast
9:58 AM 21.2°F 21.2°F 100% 30.35 in 10.0 miles Calm Calm - 0.00 in   Overcast
10:05 AM 21.2°F 21.2°F 100% 30.23 in 10.0 miles Calm Calm - N/A   Overcast
10:07 AM 21.2°F 21.2°F 100% 30.23 in 10.0 miles Calm Calm - N/A Rain Light Freezing Rain
10:30 AM 21.2°F 21.2°F 100% 30.23 in 10.0 miles Calm Calm - N/A   Overcast
10:41 AM 21.2°F 21.2°F 100% 30.23 in 10.0 miles Calm Calm - N/A   Overcast
10:58 AM 22.1°F 22.1°F 100% 30.35 in 10.0 miles Calm Calm - 0.00 in   Overcast
11:02 AM 23.0°F 23.0°F 100% 30.23 in 10.0 miles Calm Calm - N/A   Overcast
11:12 AM 23.0°F 23.0°F 100% 30.23 in 10.0 miles SSW 6.9 mph - N/A   Overcast
11:34 AM 23.0°F 23.0°F 100% 30.23 in 10.0 miles SW 3.5 mph - N/A   Overcast
11:49 AM 23.0°F 23.0°F 100% 30.23 in 10.0 miles SW 4.6 mph - N/A   Overcast
11:58 AM 22.6°F 22.6°F 100% 30.35 in 10.0 miles SW 4.6 mph - 0.00 in   Overcast
12:03 PM 23.0°F 23.0°F 100% 30.23 in 10.0 miles SW 3.5 mph - N/A   Overcast
12:23 PM 23.0°F 23.0°F 100% 30.22 in 10.0 miles SW 5.8 mph - N/A   Overcast
12:32 PM 23.0°F 23.0°F 100% 30.22 in 10.0 miles SW 5.8 mph - N/A   Overcast
12:42 PM 23.0°F 23.0°F 100% 30.23 in 10.0 miles WSW 5.8 mph - N/A   Overcast
12:52 PM 23.0°F 23.0°F 100% 30.22 in 10.0 miles SW 5.8 mph - N/A   Overcast
12:58 PM 23.5°F 23.5°F 100% 30.34 in 10.0 miles SW 6.9 mph - 0.00 in   Overcast
12:59 PM 23.0°F 23.0°F 100% 30.22 in 10.0 miles SW 5.8 mph - N/A   Overcast
1:12 PM 23.0°F 23.0°F 100% 30.22 in 10.0 miles SW 5.8 mph - N/A   Overcast
1:13 PM 23.0°F 23.0°F 100% 30.22 in 10.0 miles SW 5.8 mph - N/A   Overcast
1:18 PM 23.0°F 23.0°F 100% 30.22 in 10.0 miles SSW 5.8 mph - N/A   Overcast
1:29 PM 23.0°F 23.0°F 100% 30.22 in 10.0 miles SSW 3.5 mph - N/A   Overcast
1:44 PM 23.0°F 23.0°F 100% 30.22 in 10.0 miles SW 6.9 mph - N/A   Overcast
1:49 PM 23.0°F 23.0°F 100% 30.22 in 10.0 miles SW 5.8 mph - N/A   Overcast
1:58 PM 23.9°F 23.7°F 99% 30.34 in 10.0 miles SSW 3.5 mph - 0.00 in   Overcast
2:27 PM 23.0°F 23.0°F 100% 30.22 in 10.0 miles SW 5.8 mph - N/A   Overcast
2:33 PM 23.0°F 23.0°F 100% 30.23 in 10.0 miles SW 6.9 mph - N/A   Overcast
2:53 PM 23.0°F 23.0°F 100% 30.22 in 10.0 miles SW 6.9 mph - N/A   Overcast
2:58 PM 23.5°F 23.5°F 100% 30.35 in 10.0 miles SSW 8.1 mph - 0.00 in   Overcast
3:08 PM 23.0°F 23.0°F 100% 30.23 in 10.0 miles SW 5.8 mph - N/A   Overcast
3:58 PM 23.0°F 23.0°F 100% 30.36 in 8.0 miles WSW 10.4 mph - N/A   Overcast
4:15 PM 23.0°F 23.0°F 100% 30.24 in 6.0 miles WSW 10.4 mph - N/A   Light Freezing Drizzle
4:55 PM 23.0°F 23.0°F 100% 30.25 in 2.0 miles SW 5.8 mph - N/A   Light Freezing Drizzle
4:58 PM 23.0°F 23.0°F 100% 30.37 in 1.8 miles SSW 4.6 mph - 0.00 in   Light Freezing Drizzle
5:08 PM 23.0°F 23.0°F 100% 30.25 in 1.2 miles SW 3.5 mph - N/A   Light Freezing Drizzle
5:13 PM 23.0°F 23.0°F 100% 30.25 in 1.0 miles SW 4.6 mph - N/A   Light Freezing Drizzle
5:18 PM 23.0°F 23.0°F 100% 30.25 in 0.8 miles SW 5.8 mph - N/A   Light Freezing Drizzle
5:33 PM 23.0°F 23.0°F 100% 30.25 in 1.0 miles SW 4.6 mph - N/A   Light Freezing Drizzle
5:38 PM 23.0°F 23.0°F 100% 30.25 in 1.5 miles SW 5.8 mph - N/A   Light Freezing Drizzle
5:43 PM 23.0°F 23.0°F 100% 30.25 in 4.0 miles WSW 6.9 mph - N/A   Light Freezing Drizzle
5:48 PM 23.0°F 23.0°F 100% 30.25 in 6.0 miles WSW 6.9 mph - N/A   Overcast
5:58 PM 23.4°F 23.4°F 100% 30.37 in 2.5 miles WSW 5.8 mph - 0.00 in   Overcast
6:03 PM 23.0°F 23.0°F 100% 30.25 in 1.0 miles WSW 5.8 mph - N/A   Mist
6:07 PM 23.0°F 23.0°F 100% 30.25 in 0.8 miles WSW 5.8 mph - N/A   Mist
6:10 PM 23.0°F 23.0°F 100% 30.25 in 0.5 miles WSW 4.6 mph - N/A Fog , Rain Light Freezing Rain
6:25 PM 23.0°F 23.0°F 100% 30.25 in 0.5 miles SW 3.5 mph - N/A Fog , Rain Light Freezing Rain
6:40 PM 23.0°F 23.0°F 100% 30.25 in 0.5 miles SSW 2.3 mph - N/A Fog , Rain Light Freezing Rain
6:58 PM 23.7°F 23.7°F 100% 30.36 in 0.5 miles SW 4.6 mph - 0.00 in Fog , Rain Light Freezing Rain
7:13 PM 23.0°F 23.0°F 100% 30.25 in 0.5 miles SW 4.6 mph - N/A Fog , Rain Light Freezing Rain
7:28 PM 23.0°F 23.0°F 100% 30.25 in 1.0 miles WSW 5.8 mph - N/A Rain Light Freezing Rain
7:33 PM 23.0°F 23.0°F 100% 30.25 in 1.8 miles WSW 8.1 mph - N/A Rain Light Freezing Rain
7:35 PM 23.0°F 23.0°F 100% 30.25 in 3.0 miles WSW 6.9 mph - N/A   Overcast
7:45 PM 23.0°F 23.0°F 100% 30.25 in 5.0 miles WSW 8.1 mph - N/A   Overcast
7:46 PM 23.0°F 23.0°F 100% 30.25 in 5.0 miles WSW 6.9 mph - N/A   Overcast
7:48 PM 23.0°F 23.0°F 100% 30.25 in 5.0 miles WSW 8.1 mph - N/A   Overcast
7:58 PM 23.9°F 23.9°F 100% 30.36 in 4.0 miles WSW 5.8 mph - 0.00 in   Overcast
7:59 PM 23.0°F 23.0°F 100% 30.24 in 4.0 miles WSW 5.8 mph - N/A   Overcast
8:08 PM 23.0°F 23.0°F 100% 30.24 in 4.0 miles SW 8.1 mph - N/A   Overcast
8:33 PM 23.0°F 23.0°F 100% 30.23 in 10.0 miles SW 6.9 mph - N/A   Overcast
8:53 PM 23.0°F 23.0°F 100% 30.24 in 10.0 miles WSW 3.5 mph - N/A   Overcast
8:58 PM 23.9°F 23.9°F 100% 30.35 in 10.0 miles WSW 4.6 mph - 0.00 in   Overcast
9:38 PM 23.0°F 23.0°F 100% 30.24 in 10.0 miles SW 5.8 mph - N/A   Overcast
9:43 PM 23.0°F 23.0°F 100% 30.24 in 10.0 miles SW 5.8 mph - N/A   Overcast
9:58 PM 23.0°F 23.0°F 100% 30.35 in 10.0 miles SW 5.8 mph - N/A   Overcast
10:03 PM 23.0°F 23.0°F 100% 30.25 in 10.0 miles SW 6.9 mph - N/A   Overcast
10:08 PM 23.0°F 23.0°F 100% 30.25 in 10.0 miles SW 5.8 mph - N/A   Overcast
10:33 PM 23.0°F 23.0°F 100% 30.26 in 10.0 miles SW 6.9 mph - N/A   Overcast
10:58 PM 23.2°F 23.2°F 100% 30.37 in 10.0 miles SW 6.9 mph - N/A   Overcast
11:33 PM 23.0°F 23.0°F 100% 30.26 in 10.0 miles WSW 8.1 mph - N/A   Overcast
11:43 PM 23.0°F 23.0°F 100% 30.26 in 10.0 miles WSW 8.1 mph - N/A   Overcast
11:46 PM 23.0°F 23.0°F 100% 30.26 in 10.0 miles WSW 9.2 mph - N/A   Overcast
11:58 PM 22.8°F 22.8°F 100% 30.36 in 10.0 miles WSW 8.1 mph - 0.00 in   Overcast
Moon Phase
Dec. 30 Jan. 04 Jan. 11 Jan. 18 Jan. 26
Sunrise:07:38 AM (PST) Moon Rise:06:56 PM (PST)12/30
Sunset:04:08 PM (PST) Moon Set:08:39 AM (PST)12/30

Copyright © 2014 The Weather Underground, Inc.